owner,sensor,date,latitude,longitude,vertical_datum,mass_concentration_of_oxygen_in_sea_water,qcFlag 
LUMCON,ioos:station:LUMCON:101:1,2019-08-01T00:00:00Z,29.2533,-90.6633,1.871,9.34,11111222 
LUMCON,ioos:station:LUMCON:101:1,2019-08-01T00:15:00Z,29.2533,-90.6633,1.86,9.48,11111222 
LUMCON,ioos:station:LUMCON:101:1,2019-08-01T00:30:00Z,29.2533,-90.6633,1.847,9.22,11111222 
LUMCON,ioos:station:LUMCON:101:1,2019-08-01T00:45:00Z,29.2533,-90.6633,1.834,9.25,11111222 
LUMCON,ioos:station:LUMCON:101:1,2019-08-01T01:00:00Z,29.2533,-90.6633,1.825,9.13,11111222 
LUMCON,ioos:station:LUMCON:101:1,2019-08-01T01:15:00Z,29.2533,-90.6633,1.811,8.9,11111222 
LUMCON,ioos:station:LUMCON:101:1,2019-08-01T01:30:00Z,29.2533,-90.6633,1.8,8.93,11111222 
LUMCON,ioos:station:LUMCON:101:1,2019-08-01T01:45:00Z,29.2533,-90.6633,1.789,8.99,11111222 
LUMCON,ioos:station:LUMCON:101:1,2019-08-01T02:00:00Z,29.2533,-90.6633,1.775,8.8,11111222 
LUMCON,ioos:station:LUMCON:101:1,2019-08-01T02:15:00Z,29.2533,-90.6633,1.764,8.87,11111222 
LUMCON,ioos:station:LUMCON:101:1,2019-08-01T02:30:00Z,29.2533,-90.6633,1.75,8.74,11111222 
LUMCON,ioos:station:LUMCON:101:1,2019-08-01T02:45:00Z,29.2533,-90.6633,1.738,8.56,11111222 
LUMCON,ioos:station:LUMCON:101:1,2019-08-01T03:00:00Z,29.2533,-90.6633,1.729,8.56,11111222 
LUMCON,ioos:station:LUMCON:101:1,2019-08-01T03:15:00Z,29.2533,-90.6633,1.722,8.52,11111222 
LUMCON,ioos:station:LUMCON:101:1,2019-08-01T03:30:00Z,29.2533,-90.6633,1.719,8.48,11111222 
LUMCON,ioos:station:LUMCON:101:1,2019-08-01T03:45:00Z,29.2533,-90.6633,1.718,8.46,11111222 
LUMCON,ioos:station:LUMCON:101:1,2019-08-01T04:00:00Z,29.2533,-90.6633,1.714,8.54,11111222 
LUMCON,ioos:station:LUMCON:101:1,2019-08-01T04:15:00Z,29.2533,-90.6633,1.711,8.32,11111222 
LUMCON,ioos:station:LUMCON:101:1,2019-08-01T04:30:00Z,29.2533,-90.6633,1.71,8.18,11111222 
LUMCON,ioos:station:LUMCON:101:1,2019-08-01T04:45:00Z,29.2533,-90.6633,1.713,8.12,11111222 
LUMCON,ioos:station:LUMCON:101:1,2019-08-01T05:00:00Z,29.2533,-90.6633,1.721,8.31,11111222 
LUMCON,ioos:station:LUMCON:101:1,2019-08-01T05:15:00Z,29.2533,-90.6633,1.729,8.07,11111222 
LUMCON,ioos:station:LUMCON:101:1,2019-08-01T05:30:00Z,29.2533,-90.6633,1.739,7.95,11111222 
LUMCON,ioos:station:LUMCON:101:1,2019-08-01T05:45:00Z,29.2533,-90.6633,1.75,7.24,11111222 
LUMCON,ioos:station:LUMCON:101:1,2019-08-01T06:00:00Z,29.2533,-90.6633,1.763,7.61,11111222 
LUMCON,ioos:station:LUMCON:101:1,2019-08-01T06:15:00Z,29.2533,-90.6633,1.769,7.24,11111222 
LUMCON,ioos:station:LUMCON:101:1,2019-08-01T06:30:00Z,29.2533,-90.6633,1.782,7.46,11111222 
LUMCON,ioos:station:LUMCON:101:1,2019-08-01T06:45:00Z,29.2533,-90.6633,1.795,7.51,11111222 
LUMCON,ioos:station:LUMCON:101:1,2019-08-01T07:00:00Z,29.2533,-90.6633,1.807,8.06,11111222 
LUMCON,ioos:station:LUMCON:101:1,2019-08-01T07:15:00Z,29.2533,-90.6633,1.825,8.08,11111222 
LUMCON,ioos:station:LUMCON:101:1,2019-08-01T07:30:00Z,29.2533,-90.6633,1.834,8.15,11111222 
LUMCON,ioos:station:LUMCON:101:1,2019-08-01T07:45:00Z,29.2533,-90.6633,1.848,8.18,11111222 
LUMCON,ioos:station:LUMCON:101:1,2019-08-01T08:00:00Z,29.2533,-90.6633,1.869,8.09,11111222 
LUMCON,ioos:station:LUMCON:101:1,2019-08-01T08:15:00Z,29.2533,-90.6633,1.886,8.0,11111222 
LUMCON,ioos:station:LUMCON:101:1,2019-08-01T08:30:00Z,29.2533,-90.6633,1.903,7.87,11111222 
LUMCON,ioos:station:LUMCON:101:1,2019-08-01T08:45:00Z,29.2533,-90.6633,1.92,7.86,11111222 
LUMCON,ioos:station:LUMCON:101:1,2019-08-01T09:00:00Z,29.2533,-90.6633,1.935,7.71,11111222 
LUMCON,ioos:station:LUMCON:101:1,2019-08-01T09:15:00Z,29.2533,-90.6633,1.946,7.7,11111222 
LUMCON,ioos:station:LUMCON:101:1,2019-08-01T09:30:00Z,29.2533,-90.6633,1.962,7.43,11111222 
LUMCON,ioos:station:LUMCON:101:1,2019-08-01T09:45:00Z,29.2533,-90.6633,1.975,7.82,11111222 
LUMCON,ioos:station:LUMCON:101:1,2019-08-01T10:00:00Z,29.2533,-90.6633,1.986,7.74,11111222 
LUMCON,ioos:station:LUMCON:101:1,2019-08-01T10:15:00Z,29.2533,-90.6633,1.996,7.76,11111222 
LUMCON,ioos:station:LUMCON:101:1,2019-08-01T10:30:00Z,29.2533,-90.6633,2.004,7.66,11111222 
LUMCON,ioos:station:LUMCON:101:1,2019-08-01T10:45:00Z,29.2533,-90.6633,2.012,7.62,11111222 
LUMCON,ioos:station:LUMCON:101:1,2019-08-01T11:00:00Z,29.2533,-90.6633,2.022,7.54,11111222 
LUMCON,ioos:station:LUMCON:101:1,2019-08-01T11:15:00Z,29.2533,-90.6633,2.032,7.59,11111222 
LUMCON,ioos:station:LUMCON:101:1,2019-08-01T11:30:00Z,29.2533,-90.6633,2.04,7.57,11111222 
LUMCON,ioos:station:LUMCON:101:1,2019-08-01T11:45:00Z,29.2533,-90.6633,2.048,7.62,11111222 
LUMCON,ioos:station:LUMCON:101:1,2019-08-01T12:00:00Z,29.2533,-90.6633,2.056,7.34,11111222 
LUMCON,ioos:station:LUMCON:101:1,2019-08-01T12:15:00Z,29.2533,-90.6633,2.064,7.45,11111222 
LUMCON,ioos:station:LUMCON:101:1,2019-08-01T12:30:00Z,29.2533,-90.6633,2.078,7.44,11111222 
LUMCON,ioos:station:LUMCON:101:1,2019-08-01T12:45:00Z,29.2533,-90.6633,2.091,7.63,11111222 
LUMCON,ioos:station:LUMCON:101:1,2019-08-01T13:00:00Z,29.2533,-90.6633,2.103,7.36,11111222 
LUMCON,ioos:station:LUMCON:101:1,2019-08-01T13:15:00Z,29.2533,-90.6633,2.113,7.32,11111222 
LUMCON,ioos:station:LUMCON:101:1,2019-08-01T13:30:00Z,29.2533,-90.6633,2.12,7.38,11111222 
LUMCON,ioos:station:LUMCON:101:1,2019-08-01T13:45:00Z,29.2533,-90.6633,2.129,7.44,11111222 
LUMCON,ioos:station:LUMCON:101:1,2019-08-01T14:00:00Z,29.2533,-90.6633,2.137,7.33,11111222 
LUMCON,ioos:station:LUMCON:101:1,2019-08-01T14:15:00Z,29.2533,-90.6633,2.144,7.53,11111222 
LUMCON,ioos:station:LUMCON:101:1,2019-08-01T14:30:00Z,29.2533,-90.6633,2.152,7.47,11111222 
LUMCON,ioos:station:LUMCON:101:1,2019-08-01T14:45:00Z,29.2533,-90.6633,2.16,7.7,11111222 
LUMCON,ioos:station:LUMCON:101:1,2019-08-01T15:00:00Z,29.2533,-90.6633,2.169,7.78,11111222 
LUMCON,ioos:station:LUMCON:101:1,2019-08-01T15:15:00Z,29.2533,-90.6633,2.18,7.72,11111222 
LUMCON,ioos:station:LUMCON:101:1,2019-08-01T15:30:00Z,29.2533,-90.6633,2.185,7.97,11111222 
LUMCON,ioos:station:LUMCON:101:1,2019-08-01T15:45:00Z,29.2533,-90.6633,2.185,8.22,11111222 
LUMCON,ioos:station:LUMCON:101:1,2019-08-01T16:00:00Z,29.2533,-90.6633,2.187,8.26,11111222 
LUMCON,ioos:station:LUMCON:101:1,2019-08-01T16:15:00Z,29.2533,-90.6633,2.189,8.36,11111222 
LUMCON,ioos:station:LUMCON:101:1,2019-08-01T16:30:00Z,29.2533,-90.6633,2.197,8.46,11111222 
LUMCON,ioos:station:LUMCON:101:1,2019-08-01T16:45:00Z,29.2533,-90.6633,2.205,8.5,11111222 
LUMCON,ioos:station:LUMCON:101:1,2019-08-01T17:00:00Z,29.2533,-90.6633,2.208,8.6,11111222 
LUMCON,ioos:station:LUMCON:101:1,2019-08-01T17:15:00Z,29.2533,-90.6633,2.208,8.36,11111222 
LUMCON,ioos:station:LUMCON:101:1,2019-08-01T17:30:00Z,29.2533,-90.6633,2.206,8.37,11111222 
LUMCON,ioos:station:LUMCON:101:1,2019-08-01T17:45:00Z,29.2533,-90.6633,2.199,7.99,11111222 
LUMCON,ioos:station:LUMCON:101:1,2019-08-01T18:00:00Z,29.2533,-90.6633,2.197,8.26,11111222 
LUMCON,ioos:station:LUMCON:101:1,2019-08-01T18:15:00Z,29.2533,-90.6633,2.196,8.09,11111222 
LUMCON,ioos:station:LUMCON:101:1,2019-08-01T18:30:00Z,29.2533,-90.6633,2.196,8.54,11111222 
LUMCON,ioos:station:LUMCON:101:1,2019-08-01T18:45:00Z,29.2533,-90.6633,2.198,8.01,11111222 
LUMCON,ioos:station:LUMCON:101:1,2019-08-01T19:00:00Z,29.2533,-90.6633,2.189,8.61,11111222 
LUMCON,ioos:station:LUMCON:101:1,2019-08-01T19:15:00Z,29.2533,-90.6633,2.183,8.26,11111222 
LUMCON,ioos:station:LUMCON:101:1,2019-08-01T19:30:00Z,29.2533,-90.6633,2.176,8.46,11111222 
LUMCON,ioos:station:LUMCON:101:1,2019-08-01T19:45:00Z,29.2533,-90.6633,2.163,9.59,11111222 
LUMCON,ioos:station:LUMCON:101:1,2019-08-01T20:00:00Z,29.2533,-90.6633,2.159,10.34,11133222 
LUMCON,ioos:station:LUMCON:101:1,2019-08-01T20:15:00Z,29.2533,-90.6633,2.151,10.57,11133222 
LUMCON,ioos:station:LUMCON:101:1,2019-08-01T20:30:00Z,29.2533,-90.6633,2.137,10.62,11133222 
LUMCON,ioos:station:LUMCON:101:1,2019-08-01T20:45:00Z,29.2533,-90.6633,2.121,10.27,11133222 
LUMCON,ioos:station:LUMCON:101:1,2019-08-01T21:00:00Z,29.2533,-90.6633,2.108,10.66,11133222 
LUMCON,ioos:station:LUMCON:101:1,2019-08-01T21:15:00Z,29.2533,-90.6633,2.097,10.73,11133222 
LUMCON,ioos:station:LUMCON:101:1,2019-08-01T21:30:00Z,29.2533,-90.6633,2.082,10.7,11133222 
LUMCON,ioos:station:LUMCON:101:1,2019-08-01T21:45:00Z,29.2533,-90.6633,2.067,10.43,11133222 
LUMCON,ioos:station:LUMCON:101:1,2019-08-01T22:00:00Z,29.2533,-90.6633,2.056,10.3,11133222 
LUMCON,ioos:station:LUMCON:101:1,2019-08-01T22:15:00Z,29.2533,-90.6633,2.043,10.22,11133222 
LUMCON,ioos:station:LUMCON:101:1,2019-08-01T22:30:00Z,29.2533,-90.6633,2.029,10.23,11133222 
LUMCON,ioos:station:LUMCON:101:1,2019-08-01T22:45:00Z,29.2533,-90.6633,2.012,10.13,11133222 
LUMCON,ioos:station:LUMCON:101:1,2019-08-01T23:00:00Z,29.2533,-90.6633,1.998,10.38,11133222 
LUMCON,ioos:station:LUMCON:101:1,2019-08-01T23:15:00Z,29.2533,-90.6633,1.983,10.12,11133222 
LUMCON,ioos:station:LUMCON:101:1,2019-08-01T23:30:00Z,29.2533,-90.6633,1.966,9.81,11111222 
LUMCON,ioos:station:LUMCON:101:1,2019-08-01T23:45:00Z,29.2533,-90.6633,1.953,9.85,11111222 
LUMCON,ioos:station:LUMCON:101:1,2019-08-02T00:00:00Z,29.2533,-90.6633,1.938,9.6,11111222 
LUMCON,ioos:station:LUMCON:101:1,2019-08-02T00:15:00Z,29.2533,-90.6633,1.927,9.25,11111222 
LUMCON,ioos:station:LUMCON:101:1,2019-08-02T00:30:00Z,29.2533,-90.6633,1.918,9.75,11111222 
LUMCON,ioos:station:LUMCON:101:1,2019-08-02T00:45:00Z,29.2533,-90.6633,1.901,9.46,11111222 
LUMCON,ioos:station:LUMCON:101:1,2019-08-02T01:00:00Z,29.2533,-90.6633,1.889,8.96,11111222 
LUMCON,ioos:station:LUMCON:101:1,2019-08-02T01:15:00Z,29.2533,-90.6633,1.875,9.18,11111222 
LUMCON,ioos:station:LUMCON:101:1,2019-08-02T01:30:00Z,29.2533,-90.6633,1.865,9.14,11111222 
LUMCON,ioos:station:LUMCON:101:1,2019-08-02T01:45:00Z,29.2533,-90.6633,1.854,8.68,11111222 
LUMCON,ioos:station:LUMCON:101:1,2019-08-02T02:00:00Z,29.2533,-90.6633,1.848,8.76,11111222 
LUMCON,ioos:station:LUMCON:101:1,2019-08-02T02:15:00Z,29.2533,-90.6633,1.843,8.66,11111222 
LUMCON,ioos:station:LUMCON:101:1,2019-08-02T02:30:00Z,29.2533,-90.6633,1.835,8.7,11111222 
LUMCON,ioos:station:LUMCON:101:1,2019-08-02T02:45:00Z,29.2533,-90.6633,1.821,8.14,11111222 
LUMCON,ioos:station:LUMCON:101:1,2019-08-02T03:00:00Z,29.2533,-90.6633,1.809,8.35,11111222 
LUMCON,ioos:station:LUMCON:101:1,2019-08-02T03:15:00Z,29.2533,-90.6633,1.797,8.16,11111222 
LUMCON,ioos:station:LUMCON:101:1,2019-08-02T03:30:00Z,29.2533,-90.6633,1.787,8.21,11111222 
LUMCON,ioos:station:LUMCON:101:1,2019-08-02T03:45:00Z,29.2533,-90.6633,1.78,8.07,11111222 
LUMCON,ioos:station:LUMCON:101:1,2019-08-02T04:00:00Z,29.2533,-90.6633,1.777,8.22,11111222 
LUMCON,ioos:station:LUMCON:101:1,2019-08-02T04:15:00Z,29.2533,-90.6633,1.775,8.15,11111222 
LUMCON,ioos:station:LUMCON:101:1,2019-08-02T04:30:00Z,29.2533,-90.6633,1.771,7.8,11111222 
LUMCON,ioos:station:LUMCON:101:1,2019-08-02T04:45:00Z,29.2533,-90.6633,1.772,8.16,11111222 
LUMCON,ioos:station:LUMCON:101:1,2019-08-02T05:00:00Z,29.2533,-90.6633,1.775,7.79,11111222 
LUMCON,ioos:station:LUMCON:101:1,2019-08-02T05:15:00Z,29.2533,-90.6633,1.77,7.81,11111222 
LUMCON,ioos:station:LUMCON:101:1,2019-08-02T05:30:00Z,29.2533,-90.6633,1.77,7.72,11111222 
LUMCON,ioos:station:LUMCON:101:1,2019-08-02T05:45:00Z,29.2533,-90.6633,1.777,7.57,11111222 
LUMCON,ioos:station:LUMCON:101:1,2019-08-02T06:00:00Z,29.2533,-90.6633,1.779,7.83,11111222 
LUMCON,ioos:station:LUMCON:101:1,2019-08-02T06:15:00Z,29.2533,-90.6633,1.792,7.12,11111222 
LUMCON,ioos:station:LUMCON:101:1,2019-08-02T06:30:00Z,29.2533,-90.6633,1.804,7.32,11111222 
LUMCON,ioos:station:LUMCON:101:1,2019-08-02T06:45:00Z,29.2533,-90.6633,1.817,7.4,11111222 
LUMCON,ioos:station:LUMCON:101:1,2019-08-02T07:00:00Z,29.2533,-90.6633,1.823,7.22,11111222 
LUMCON,ioos:station:LUMCON:101:1,2019-08-02T07:15:00Z,29.2533,-90.6633,1.84,7.36,11111222 
LUMCON,ioos:station:LUMCON:101:1,2019-08-02T07:30:00Z,29.2533,-90.6633,1.863,7.39,11111222 
LUMCON,ioos:station:LUMCON:101:1,2019-08-02T07:45:00Z,29.2533,-90.6633,1.874,7.56,11111222 
LUMCON,ioos:station:LUMCON:101:1,2019-08-02T08:00:00Z,29.2533,-90.6633,1.885,7.92,11111222 
LUMCON,ioos:station:LUMCON:101:1,2019-08-02T08:15:00Z,29.2533,-90.6633,1.905,8.21,11111222 
LUMCON,ioos:station:LUMCON:101:1,2019-08-02T08:30:00Z,29.2533,-90.6633,1.918,8.37,11111222 
LUMCON,ioos:station:LUMCON:101:1,2019-08-02T08:45:00Z,29.2533,-90.6633,1.929,8.31,11111222 
LUMCON,ioos:station:LUMCON:101:1,2019-08-02T09:00:00Z,29.2533,-90.6633,1.948,8.25,11111222 
LUMCON,ioos:station:LUMCON:101:1,2019-08-02T09:15:00Z,29.2533,-90.6633,1.96,8.33,11111222 
LUMCON,ioos:station:LUMCON:101:1,2019-08-02T09:30:00Z,29.2533,-90.6633,1.976,8.27,11111222 
LUMCON,ioos:station:LUMCON:101:1,2019-08-02T09:45:00Z,29.2533,-90.6633,1.987,8.15,11111222 
LUMCON,ioos:station:LUMCON:101:1,2019-08-02T10:00:00Z,29.2533,-90.6633,1.997,8.16,11111222 
LUMCON,ioos:station:LUMCON:101:1,2019-08-02T10:15:00Z,29.2533,-90.6633,2.01,8.02,11111222 
LUMCON,ioos:station:LUMCON:101:1,2019-08-02T10:30:00Z,29.2533,-90.6633,2.022,8.12,11111222 
LUMCON,ioos:station:LUMCON:101:1,2019-08-02T10:45:00Z,29.2533,-90.6633,2.033,7.93,11111222 
LUMCON,ioos:station:LUMCON:101:1,2019-08-02T11:00:00Z,29.2533,-90.6633,2.046,7.89,11111222 
LUMCON,ioos:station:LUMCON:101:1,2019-08-02T11:15:00Z,29.2533,-90.6633,2.061,7.76,11111222 
LUMCON,ioos:station:LUMCON:101:1,2019-08-02T11:30:00Z,29.2533,-90.6633,2.086,7.76,11111222 
LUMCON,ioos:station:LUMCON:101:1,2019-08-02T11:45:00Z,29.2533,-90.6633,2.1,7.64,11111222 
LUMCON,ioos:station:LUMCON:101:1,2019-08-02T12:00:00Z,29.2533,-90.6633,2.094,7.25,11111222 
LUMCON,ioos:station:LUMCON:101:1,2019-08-02T12:15:00Z,29.2533,-90.6633,2.107,7.38,11111222 
LUMCON,ioos:station:LUMCON:101:1,2019-08-02T12:30:00Z,29.2533,-90.6633,2.102,7.51,11111222 
LUMCON,ioos:station:LUMCON:101:1,2019-08-02T12:45:00Z,29.2533,-90.6633,2.093,6.8,11111222 
LUMCON,ioos:station:LUMCON:101:1,2019-08-02T13:00:00Z,29.2533,-90.6633,2.099,7.09,11111222 
LUMCON,ioos:station:LUMCON:101:1,2019-08-02T13:15:00Z,29.2533,-90.6633,2.103,6.94,11111222 
LUMCON,ioos:station:LUMCON:101:1,2019-08-02T13:30:00Z,29.2533,-90.6633,2.11,7.26,11111222 
LUMCON,ioos:station:LUMCON:101:1,2019-08-02T13:45:00Z,29.2533,-90.6633,2.125,7.48,11111222 
LUMCON,ioos:station:LUMCON:101:1,2019-08-02T14:00:00Z,29.2533,-90.6633,2.136,7.46,11111222 
LUMCON,ioos:station:LUMCON:101:1,2019-08-02T14:15:00Z,29.2533,-90.6633,2.142,7.36,11111222 
LUMCON,ioos:station:LUMCON:101:1,2019-08-02T14:30:00Z,29.2533,-90.6633,2.153,7.76,11111222 
LUMCON,ioos:station:LUMCON:101:1,2019-08-02T14:45:00Z,29.2533,-90.6633,2.163,7.98,11111222 
LUMCON,ioos:station:LUMCON:101:1,2019-08-02T15:00:00Z,29.2533,-90.6633,2.166,7.92,11111222 
LUMCON,ioos:station:LUMCON:101:1,2019-08-02T15:15:00Z,29.2533,-90.6633,2.171,7.81,11111222 
LUMCON,ioos:station:LUMCON:101:1,2019-08-02T15:30:00Z,29.2533,-90.6633,2.176,7.62,11111222 
LUMCON,ioos:station:LUMCON:101:1,2019-08-02T15:45:00Z,29.2533,-90.6633,2.179,7.73,11111222 
LUMCON,ioos:station:LUMCON:101:1,2019-08-02T16:00:00Z,29.2533,-90.6633,2.185,7.78,11111222 
LUMCON,ioos:station:LUMCON:101:1,2019-08-02T16:15:00Z,29.2533,-90.6633,2.193,7.85,11111222 
LUMCON,ioos:station:LUMCON:101:1,2019-08-02T16:30:00Z,29.2533,-90.6633,2.199,8.11,11111222 
LUMCON,ioos:station:LUMCON:101:1,2019-08-02T16:45:00Z,29.2533,-90.6633,2.202,8.15,11111222 
LUMCON,ioos:station:LUMCON:101:1,2019-08-02T17:00:00Z,29.2533,-90.6633,2.197,8.11,11111222 
LUMCON,ioos:station:LUMCON:101:1,2019-08-02T17:15:00Z,29.2533,-90.6633,2.188,7.25,11111222 
LUMCON,ioos:station:LUMCON:101:1,2019-08-02T17:30:00Z,29.2533,-90.6633,2.179,8.33,11111222 
LUMCON,ioos:station:LUMCON:101:1,2019-08-02T17:45:00Z,29.2533,-90.6633,2.178,8.6,11111222 
LUMCON,ioos:station:LUMCON:101:1,2019-08-02T18:00:00Z,29.2533,-90.6633,2.187,9.09,11111222 
LUMCON,ioos:station:LUMCON:101:1,2019-08-02T18:15:00Z,29.2533,-90.6633,2.197,8.14,11111222 
LUMCON,ioos:station:LUMCON:101:1,2019-08-02T18:30:00Z,29.2533,-90.6633,2.198,8.35,11111222 
LUMCON,ioos:station:LUMCON:101:1,2019-08-02T18:45:00Z,29.2533,-90.6633,2.199,8.18,11111222 
LUMCON,ioos:station:LUMCON:101:1,2019-08-02T19:00:00Z,29.2533,-90.6633,2.196,7.01,11111222 
LUMCON,ioos:station:LUMCON:101:1,2019-08-02T19:15:00Z,29.2533,-90.6633,2.199,7.78,11111222 
LUMCON,ioos:station:LUMCON:101:1,2019-08-02T19:30:00Z,29.2533,-90.6633,2.195,7.17,11111222 
LUMCON,ioos:station:LUMCON:101:1,2019-08-02T19:45:00Z,29.2533,-90.6633,2.187,7.72,11111222 
LUMCON,ioos:station:LUMCON:101:1,2019-08-02T20:00:00Z,29.2533,-90.6633,2.184,8.17,11111222 
LUMCON,ioos:station:LUMCON:101:1,2019-08-02T20:15:00Z,29.2533,-90.6633,2.172,8.45,11111222 
LUMCON,ioos:station:LUMCON:101:1,2019-08-02T20:30:00Z,29.2533,-90.6633,2.166,9.26,11111222 
LUMCON,ioos:station:LUMCON:101:1,2019-08-02T20:45:00Z,29.2533,-90.6633,2.154,10.08,11133222 
LUMCON,ioos:station:LUMCON:101:1,2019-08-02T21:00:00Z,29.2533,-90.6633,2.145,9.98,11111222 
LUMCON,ioos:station:LUMCON:101:1,2019-08-02T21:15:00Z,29.2533,-90.6633,2.129,9.79,11111222 
LUMCON,ioos:station:LUMCON:101:1,2019-08-02T21:30:00Z,29.2533,-90.6633,2.119,9.67,11111222 
LUMCON,ioos:station:LUMCON:101:1,2019-08-02T21:45:00Z,29.2533,-90.6633,2.112,9.69,11111222 
LUMCON,ioos:station:LUMCON:101:1,2019-08-02T22:00:00Z,29.2533,-90.6633,2.103,9.79,11111222 
LUMCON,ioos:station:LUMCON:101:1,2019-08-02T22:15:00Z,29.2533,-90.6633,2.091,9.7,11111222 
LUMCON,ioos:station:LUMCON:101:1,2019-08-02T22:30:00Z,29.2533,-90.6633,2.076,9.53,11111222 
LUMCON,ioos:station:LUMCON:101:1,2019-08-02T22:45:00Z,29.2533,-90.6633,2.062,9.26,11111222 
LUMCON,ioos:station:LUMCON:101:1,2019-08-02T23:00:00Z,29.2533,-90.6633,2.051,9.05,11111222 
LUMCON,ioos:station:LUMCON:101:1,2019-08-02T23:15:00Z,29.2533,-90.6633,2.04,8.94,11111222 
LUMCON,ioos:station:LUMCON:101:1,2019-08-02T23:30:00Z,29.2533,-90.6633,2.028,8.62,11111222 
LUMCON,ioos:station:LUMCON:101:1,2019-08-02T23:45:00Z,29.2533,-90.6633,2.016,8.69,11111222 
LUMCON,ioos:station:LUMCON:101:1,2019-08-03T00:00:00Z,29.2533,-90.6633,1.997,8.41,11111222 
LUMCON,ioos:station:LUMCON:101:1,2019-08-03T00:15:00Z,29.2533,-90.6633,1.984,8.24,11111222 
LUMCON,ioos:station:LUMCON:101:1,2019-08-03T00:30:00Z,29.2533,-90.6633,1.973,8.08,11111222 
LUMCON,ioos:station:LUMCON:101:1,2019-08-03T00:45:00Z,29.2533,-90.6633,1.951,8.17,11111222 
LUMCON,ioos:station:LUMCON:101:1,2019-08-03T01:00:00Z,29.2533,-90.6633,1.938,8.03,11111222 
LUMCON,ioos:station:LUMCON:101:1,2019-08-03T01:15:00Z,29.2533,-90.6633,1.925,7.66,11111222 
LUMCON,ioos:station:LUMCON:101:1,2019-08-03T01:30:00Z,29.2533,-90.6633,1.916,7.62,11111222 
LUMCON,ioos:station:LUMCON:101:1,2019-08-03T01:45:00Z,29.2533,-90.6633,1.905,7.52,11111222 
LUMCON,ioos:station:LUMCON:101:1,2019-08-03T02:00:00Z,29.2533,-90.6633,1.894,7.1,11111222 
LUMCON,ioos:station:LUMCON:101:1,2019-08-03T02:15:00Z,29.2533,-90.6633,1.884,7.58,11111222 
LUMCON,ioos:station:LUMCON:101:1,2019-08-03T02:30:00Z,29.2533,-90.6633,1.869,7.43,11111222 
LUMCON,ioos:station:LUMCON:101:1,2019-08-03T02:45:00Z,29.2533,-90.6633,1.86,7.3,11111222 
LUMCON,ioos:station:LUMCON:101:1,2019-08-03T03:00:00Z,29.2533,-90.6633,1.847,7.43,11111222 
LUMCON,ioos:station:LUMCON:101:1,2019-08-03T03:15:00Z,29.2533,-90.6633,1.838,7.31,11111222 
LUMCON,ioos:station:LUMCON:101:1,2019-08-03T03:30:00Z,29.2533,-90.6633,1.824,7.35,11111222 
LUMCON,ioos:station:LUMCON:101:1,2019-08-03T03:45:00Z,29.2533,-90.6633,1.812,6.91,11111222 
LUMCON,ioos:station:LUMCON:101:1,2019-08-03T04:00:00Z,29.2533,-90.6633,1.806,7.03,11111222 
LUMCON,ioos:station:LUMCON:101:1,2019-08-03T04:15:00Z,29.2533,-90.6633,1.796,7.08,11111222 
LUMCON,ioos:station:LUMCON:101:1,2019-08-03T04:30:00Z,29.2533,-90.6633,1.795,7.24,11111222 
LUMCON,ioos:station:LUMCON:101:1,2019-08-03T04:45:00Z,29.2533,-90.6633,1.795,7.14,11111222 
LUMCON,ioos:station:LUMCON:101:1,2019-08-03T05:00:00Z,29.2533,-90.6633,1.793,7.02,11111222 
LUMCON,ioos:station:LUMCON:101:1,2019-08-03T05:15:00Z,29.2533,-90.6633,1.79,7.1,11111222 
LUMCON,ioos:station:LUMCON:101:1,2019-08-03T05:30:00Z,29.2533,-90.6633,1.785,7.07,11111222 
LUMCON,ioos:station:LUMCON:101:1,2019-08-03T05:45:00Z,29.2533,-90.6633,1.778,6.9,11111222 
LUMCON,ioos:station:LUMCON:101:1,2019-08-03T06:00:00Z,29.2533,-90.6633,1.785,7.04,11111222 
LUMCON,ioos:station:LUMCON:101:1,2019-08-03T06:15:00Z,29.2533,-90.6633,1.794,6.86,11111222 
LUMCON,ioos:station:LUMCON:101:1,2019-08-03T06:30:00Z,29.2533,-90.6633,1.801,7.17,11111222 
LUMCON,ioos:station:LUMCON:101:1,2019-08-03T06:45:00Z,29.2533,-90.6633,1.817,6.85,11111222 
LUMCON,ioos:station:LUMCON:101:1,2019-08-03T07:00:00Z,29.2533,-90.6633,1.833,6.76,11111222 
LUMCON,ioos:station:LUMCON:101:1,2019-08-03T07:15:00Z,29.2533,-90.6633,1.841,6.96,11111222 
LUMCON,ioos:station:LUMCON:101:1,2019-08-03T07:30:00Z,29.2533,-90.6633,1.858,6.7,11111222 
LUMCON,ioos:station:LUMCON:101:1,2019-08-03T07:45:00Z,29.2533,-90.6633,1.867,6.94,11111222 
LUMCON,ioos:station:LUMCON:101:1,2019-08-03T08:00:00Z,29.2533,-90.6633,1.875,7.4,11111222 
LUMCON,ioos:station:LUMCON:101:1,2019-08-03T08:15:00Z,29.2533,-90.6633,1.892,7.78,11111222 
LUMCON,ioos:station:LUMCON:101:1,2019-08-03T08:30:00Z,29.2533,-90.6633,1.897,7.63,11111222 
LUMCON,ioos:station:LUMCON:101:1,2019-08-03T08:45:00Z,29.2533,-90.6633,1.912,7.76,11111222 
LUMCON,ioos:station:LUMCON:101:1,2019-08-03T09:00:00Z,29.2533,-90.6633,1.931,7.64,11111222 
LUMCON,ioos:station:LUMCON:101:1,2019-08-03T09:15:00Z,29.2533,-90.6633,1.943,7.85,11111222 
LUMCON,ioos:station:LUMCON:101:1,2019-08-03T09:30:00Z,29.2533,-90.6633,1.959,7.83,11111222 
LUMCON,ioos:station:LUMCON:101:1,2019-08-03T09:45:00Z,29.2533,-90.6633,1.973,7.73,11111222 
LUMCON,ioos:station:LUMCON:101:1,2019-08-03T10:00:00Z,29.2533,-90.6633,1.983,7.6,11111222 
LUMCON,ioos:station:LUMCON:101:1,2019-08-03T10:15:00Z,29.2533,-90.6633,1.996,7.61,11111222 
LUMCON,ioos:station:LUMCON:101:1,2019-08-03T10:30:00Z,29.2533,-90.6633,2.009,7.25,11111222 
LUMCON,ioos:station:LUMCON:101:1,2019-08-03T10:45:00Z,29.2533,-90.6633,2.023,7.23,11111222 
LUMCON,ioos:station:LUMCON:101:1,2019-08-03T11:00:00Z,29.2533,-90.6633,2.036,7.26,11111222 
LUMCON,ioos:station:LUMCON:101:1,2019-08-03T11:15:00Z,29.2533,-90.6633,2.046,7.22,11111222 
LUMCON,ioos:station:LUMCON:101:1,2019-08-03T11:30:00Z,29.2533,-90.6633,2.055,7.13,11111222 
LUMCON,ioos:station:LUMCON:101:1,2019-08-03T11:45:00Z,29.2533,-90.6633,2.06,6.95,11111222 
LUMCON,ioos:station:LUMCON:101:1,2019-08-03T12:00:00Z,29.2533,-90.6633,2.066,6.91,11111222 
LUMCON,ioos:station:LUMCON:101:1,2019-08-03T12:15:00Z,29.2533,-90.6633,2.072,6.88,11111222 
LUMCON,ioos:station:LUMCON:101:1,2019-08-03T12:30:00Z,29.2533,-90.6633,2.074,6.78,11111222 
LUMCON,ioos:station:LUMCON:101:1,2019-08-03T12:45:00Z,29.2533,-90.6633,2.081,6.7,11111222 
LUMCON,ioos:station:LUMCON:101:1,2019-08-03T13:00:00Z,29.2533,-90.6633,2.093,6.73,11111222 
LUMCON,ioos:station:LUMCON:101:1,2019-08-03T13:15:00Z,29.2533,-90.6633,2.1,6.63,11111222 
LUMCON,ioos:station:LUMCON:101:1,2019-08-03T13:30:00Z,29.2533,-90.6633,2.102,6.69,11111222 
LUMCON,ioos:station:LUMCON:101:1,2019-08-03T13:45:00Z,29.2533,-90.6633,2.104,6.61,11111222 
LUMCON,ioos:station:LUMCON:101:1,2019-08-03T14:00:00Z,29.2533,-90.6633,2.112,6.64,11111222 
LUMCON,ioos:station:LUMCON:101:1,2019-08-03T14:15:00Z,29.2533,-90.6633,2.119,6.82,11111222 
LUMCON,ioos:station:LUMCON:101:1,2019-08-03T14:30:00Z,29.2533,-90.6633,2.126,6.6,11111222 
LUMCON,ioos:station:LUMCON:101:1,2019-08-03T14:45:00Z,29.2533,-90.6633,2.128,6.65,11111222 
LUMCON,ioos:station:LUMCON:101:1,2019-08-03T15:00:00Z,29.2533,-90.6633,2.138,6.75,11111222 
LUMCON,ioos:station:LUMCON:101:1,2019-08-03T15:15:00Z,29.2533,-90.6633,2.145,6.78,11111222 
LUMCON,ioos:station:LUMCON:101:1,2019-08-03T15:30:00Z,29.2533,-90.6633,2.154,6.91,11111222 
LUMCON,ioos:station:LUMCON:101:1,2019-08-03T15:45:00Z,29.2533,-90.6633,2.162,7.15,11111222 
LUMCON,ioos:station:LUMCON:101:1,2019-08-03T16:00:00Z,29.2533,-90.6633,2.168,7.01,11111222 
LUMCON,ioos:station:LUMCON:101:1,2019-08-03T16:15:00Z,29.2533,-90.6633,2.174,7.15,11111222 
LUMCON,ioos:station:LUMCON:101:1,2019-08-03T16:30:00Z,29.2533,-90.6633,2.182,7.39,11111222 
LUMCON,ioos:station:LUMCON:101:1,2019-08-03T16:45:00Z,29.2533,-90.6633,2.185,7.49,11111222 